GW0378 Weather Reports


time (UTC)temp
C
wind
direction
speed
KPH
gust
KPH
rain 1hr
cm
rain 24hr
cm
rain mn
cm
humidity
%
barometer
mb
20260506061501 6 116 4.8 14.5 0.00 0.00 0.00 54 1018.7
20260506060959 6 145 4.8 4.8 0.00 0.00 0.00 53 1018.7
20260506060457 7 115 14.5 27.4 0.00 0.00 0.00 51 1018.6
20260506050926 7 117 0.0 8.0 0.00 0.00 0.00 53 1018.0
20260506050424 7 101 3.2 4.8 0.00 0.00 0.00 53 1018.2
20260506044914 7 90 3.2 4.8 0.00 0.00 0.00 51 1018.0
20260506044412 7 78 1.6 4.8 0.00 0.00 0.00 51 1018.1
20260506043909 7 85 4.8 8.0 0.00 0.00 0.00 51 1017.9
20260506043406 8 111 4.8 20.9 0.00 0.00 0.00 49 1018.1
20260506042904 8 99 12.9 14.5 0.00 0.00 0.00 50 1018.0
20260506042403 8 125 9.7 24.1 0.00 0.00 0.00 49 1018.0
20260506041901 8 129 19.3 20.9 0.00 0.00 0.00 49 1017.7
20260506041358 8 112 11.3 25.7 0.00 0.00 0.00 50 1017.9
20260506040855 8 109 17.7 19.3 0.00 0.00 0.00 50 1017.9
20260506040352 8 109 9.7 14.5 0.00 0.00 0.00 50 1017.5
20260506035848 8 102 1.6 19.3 0.00 0.00 0.00 50 1017.7
20260506035346 8 118 9.7 17.7 0.00 0.00 0.00 50 1017.5
20260506034843 8 148 11.3 25.7 0.00 0.00 0.00 48 1017.6
20260506034340 9 108 11.3 33.8 0.00 0.00 0.00 48 1017.4
20260506033837 9 111 19.3 22.5 0.00 0.00 0.00 48 1017.5
20260506033334 10 90 8.0 16.1 0.00 0.00 0.00 47 1017.4
20260506032831 10 97 22.5 22.5 0.00 0.00 0.00 47 1017.2
20260506032327 9 102 14.5 22.5 0.00 0.00 0.00 48 1017.2
20260506031825 9 65 11.3 25.7 0.00 0.00 0.00 48 1017.0
20260506031322 9 110 12.9 33.8 0.00 0.00 0.00 48 1017.1
20260506030819 9 133 12.9 30.6 0.00 0.00 0.00 48 1016.9
20260506030317 10 122 8.0 33.8 0.00 0.00 0.00 48 1016.7
20260506025814 10 122 16.1 25.7 0.00 0.00 0.00 49 1016.7
20260506025310 10 110 6.4 25.7 0.00 0.00 0.00 48 1016.4
20260506024808 10 99 12.9 24.1 0.00 0.00 0.00 48 1016.5
20260506024304 10 115 17.7 27.4 0.00 0.00 0.00 47 1016.2
20260506023800 10 87 11.3 32.2 0.00 0.00 0.00 46 1016.5
20260506023258 10 94 14.5 35.4 0.00 0.00 0.00 45 1016.4
20260506022754 11 98 12.9 29.0 0.00 0.00 0.00 45 1016.2
20260506022252 11 95 9.7 46.7 0.00 0.00 0.00 45 1016.0
20260506021750 11 109 27.4 43.5 0.00 0.00 0.00 44 1016.1
20260506021246 11 126 29.0 38.6 0.00 0.00 0.00 44 1015.9
20260506020743 11 129 25.7 43.5 0.00 0.00 0.00 43 1015.9
20260506020241 11 119 6.4 41.8 0.00 0.00 0.00 43 1015.8
20260506015738 12 100 19.3 33.8 0.00 0.00 0.00 42 1015.9
20260506015236 12 128 11.3 32.2 0.00 0.00 0.00 42 1016.0
20260506014732 12 107 8.0 35.4 0.00 0.00 0.00 41 1015.7
20260506014229 12 107 9.7 25.7 0.00 0.00 0.00 42 1015.7
20260506013726 13 71 9.7 22.5 0.00 0.00 0.00 41 1015.8
20260506013223 13 107 11.3 24.1 0.00 0.00 0.00 41 1015.9
20260506012719 13 95 6.4 19.3 0.00 0.00 0.00 39 1015.6
20260506012216 13 128 14.5 20.9 0.00 0.00 0.00 40 1015.6
20260506011714 13 66 6.4 19.3 0.00 0.00 0.00 39 1015.9
20260506011210 13 56 12.9 17.7 0.00 0.00 0.00 39 1015.8
20260506010709 13 64 11.3 20.9 0.00 0.00 0.00 39 1015.7
20260506010206 13 69 9.7 24.1 0.00 0.00 0.00 38 1015.5
20260506005702 14 97 8.0 30.6 0.00 0.00 0.00 38 1015.6
20260506005159 15 42 9.7 20.9 0.00 0.00 0.00 37 1015.5
20260506004655 15 104 8.0 25.7 0.00 0.00 0.00 37 1015.5
20260506004153 15 102 4.8 12.9 0.00 0.00 0.00 34 1015.6
20260506003649 16 129 0.0 8.0 0.00 0.00 0.00 34 1015.5
20260506003145 16 20 8.0 16.1 0.00 0.00 0.00 29 1015.5
20260506002641 15 270 4.8 17.7 0.00 0.00 0.00 28 1015.2
20260506002137 16 3 3.2 9.7 0.00 0.00 0.00 28 1015.2
20260506001633 16 12 6.4 12.9 0.00 0.00 0.00 28 1015.4
20260506001131 15 342 8.0 17.7 0.00 0.00 0.00 28 1015.5
20260506000628 15 339 8.0 22.5 0.00 0.00 0.00 27 1015.5
20260506000125 15 308 9.7 27.4 0.00 0.00 0.00 27 1015.1
20260505235623 16 1 8.0 14.5 0.00 0.00 0.00 27 1015.4
20260505235120 16 1 14.5 20.9 0.00 0.00 0.00 27 1015.0
20260505234617 16 288 3.2 11.3 0.00 0.00 0.00 29 1015.0
20260505234114 15 69 8.0 24.1 0.00 0.00 0.00 28 1014.9
20260505233611 16 3 22.5 29.0 0.00 0.00 0.00 26 1015.4
20260505233109 15 307 4.8 24.1 0.00 0.00 0.00 27 1015.2
20260505232606 16 0 11.3 22.5 0.00 0.00 0.00 26 1015.1
20260505232104 16 328 4.8 29.0 0.00 0.00 0.00 25 1014.9
20260505231600 16 320 14.5 22.5 0.00 0.00 0.00 27 1015.1
20260505231059 16 345 12.9 30.6 0.00 0.00 0.00 27 1015.1
20260505230556 16 49 4.8 17.7 0.00 0.00 0.00 28 1014.9
20260505230052 16 24 4.8 11.3 0.00 0.00 0.00 28 1015.4
20260505225549 16 302 12.9 29.0 0.00 0.00 0.00 27 1015.0
20260505225045 16 302 16.1 32.2 0.00 0.00 0.00 27 1014.9
20260505224542 16 273 11.3 19.3 0.00 0.00 0.00 28 1015.0
20260505224040 16 354 9.7 24.1 0.00 0.00 0.00 28 1014.9
20260505223537 16 282 6.4 16.1 0.00 0.00 0.00 28 1015.0
20260505223033 16 39 8.0 22.5 0.00 0.00 0.00 26 1014.8
20260505222529 16 346 9.7 29.0 0.00 0.00 0.00 27 1014.9
20260505222025 16 36 3.2 30.6 0.00 0.00 0.00 29 1015.1
20260505221523 16 340 12.9 17.7 0.00 0.00 0.00 28 1015.1
20260505221019 16 319 9.7 27.4 0.00 0.00 0.00 29 1015.0
20260505220516 16 350 14.5 22.5 0.00 0.00 0.00 29 1015.0
20260505220014 16 309 9.7 19.3 0.00 0.00 0.00 28 1015.4
20260505215512 16 330 9.7 24.1 0.00 0.00 0.00 30 1015.1
20260505215010 16 315 8.0 19.3 0.00 0.00 0.00 31 1015.1
20260505214508 16 334 6.4 24.1 0.00 0.00 0.00 32 1015.0
20260505214004 16 286 16.1 27.4 0.00 0.00 0.00 32 1014.8
20260505213502 16 279 4.8 25.7 0.00 0.00 0.00 31 1014.9
20260505212958 16 353 6.4 20.9 0.00 0.00 0.00 29 1015.0
20260505212455 16 237 20.9 29.0 0.00 0.00 0.00 31 1014.8
20260505211951 16 290 9.7 20.9 0.00 0.00 0.00 33 1014.8
20260505211449 16 14 8.0 14.5 0.00 0.00 0.00 31 1014.8
20260505210945 16 262 9.7 17.7 0.00 0.00 0.00 30 1015.0
20260505210442 16 7 9.7 24.1 0.00 0.00 0.00 28 1014.8
20260505205939 16 303 9.7 12.9 0.00 0.00 0.00 33 1014.8
20260505205438 16 13 8.0 19.3 0.00 0.00 0.00 31 1015.0
20260505204934 17 250 8.0 16.1 0.00 0.00 0.00 31 1015.1
20260505204432 16 279 4.8 14.5 0.00 0.00 0.00 34 1015.0
20260505203929 16 324 4.8 20.9 0.00 0.00 0.00 31 1015.0
20260505203425 16 356 8.0 12.9 0.00 0.00 0.00 33 1015.0
20260505202921 15 45 4.8 11.3 0.00 0.00 0.00 34 1015.1
20260505202418 15 180 3.2 9.7 0.00 0.00 0.00 34 1014.8
20260505201915 14 200 8.0 14.5 0.00 0.00 0.00 34 1015.1
20260505201412 15 341 6.4 8.0 0.00 0.00 0.00 32 1014.8
20260505200910 16 106 3.2 8.0 0.00 0.00 0.00 30 1015.2
20260505200407 15 267 9.7 14.5 0.00 0.00 0.00 32 1015.0
20260505195902 15 0 0.0 8.0 0.00 0.00 0.00 31 1015.1
20260505195400 14 140 3.2 11.3 0.00 0.00 0.00 31 1015.1
20260505194857 15 318 4.8 4.8 0.00 0.00 0.00 32 1015.2
20260505194354 15 255 8.0 14.5 0.00 0.00 0.00 33 1015.4
20260505193849 14 293 9.7 16.1 0.00 0.00 0.00 33 1015.1
20260505193347 14 254 9.7 17.7 0.00 0.00 0.00 35 1015.2
20260505192844 15 288 11.3 20.9 0.00 0.00 0.00 33 1015.4
20260505192342 15 83 4.8 6.4 0.00 0.00 0.00 29 1015.5
20260505191839 15 299 9.7 12.9 0.00 0.00 0.00 30 1015.6
20260505191338 15 268 9.7 12.9 0.00 0.00 0.00 33 1015.5
20260505190834 15 7 6.4 8.0 0.00 0.00 0.00 32 1015.6
20260505190330 15 270 3.2 14.5 0.00 0.00 0.00 32 1015.5
20260505185826 15 282 9.7 9.7 0.00 0.00 0.00 29 1015.8
20260505185322 15 307 8.0 8.0 0.00 0.00 0.00 35 1015.8
20260505184819 14 349 4.8 11.3 0.00 0.00 0.00 31 1015.8
20260505184316 15 315 8.0 9.7 0.00 0.00 0.00 30 1015.8
20260505183813 13 350 11.3 12.9 0.00 0.00 0.00 33 1015.8
20260505183310 14 21 6.4 11.3 0.00 0.00 0.00 29 1015.8
20260505182806 13 229 4.8 12.9 0.00 0.00 0.00 31 1015.8
20260505182306 13 352 0.0 8.0 0.00 0.00 0.00 29 1015.7
20260505181800 13 297 8.0 12.9 0.00 0.00 0.00 30 1016.0
20260505181257 13 346 8.0 17.7 0.00 0.00 0.00 30 1016.0
20260505180754 13 336 11.3 14.5 0.00 0.00 0.00 31 1016.0
20260505180250 14 298 6.4 11.3 0.00 0.00 0.00 35 1015.9
20260505175747 13 276 8.0 16.1 0.00 0.00 0.00 35 1015.9
20260505175243 13 322 6.4 14.5 0.00 0.00 0.00 32 1015.9
20260505174740 13 244 0.0 14.5 0.00 0.00 0.00 34 1016.0
20260505174237 13 270 4.8 8.0 0.00 0.00 0.00 35 1016.0
20260505173733 13 48 6.4 9.7 0.00 0.00 0.00 34 1015.9
20260505173230 13 17 6.4 11.3 0.00 0.00 0.00 34 1015.9
20260505172727 13 281 9.7 14.5 0.00 0.00 0.00 32 1016.0
20260505172224 13 23 4.8 11.3 0.00 0.00 0.00 32 1016.1
20260505171723 13 38 4.8 9.7 0.00 0.00 0.00 32 1016.0
20260505171221 12 312 8.0 14.5 0.00 0.00 0.00 32 1016.2
20260505170717 13 351 6.4 11.3 0.00 0.00 0.00 35 1016.1
20260505170214 13 17 3.2 8.0 0.00 0.00 0.00 34 1016.1
20260505165710 13 74 3.2 11.3 0.00 0.00 0.00 35 1016.1
20260505165206 13 25 8.0 11.3 0.00 0.00 0.00 34 1016.2
20260505164701 13 21 8.0 11.3 0.00 0.00 0.00 35 1016.6
20260505164159 12 48 3.2 16.1 0.00 0.00 0.00 36 1016.2
20260505163657 12 40 4.8 12.9 0.00 0.00 0.00 33 1016.5
20260505163155 12 45 8.0 17.7 0.00 0.00 0.00 35 1016.6
20260505162652 12 90 8.0 11.3 0.00 0.00 0.00 35 1016.4
20260505162149 13 36 4.8 6.4 0.00 0.00 0.00 37 1016.6
20260505161646 12 56 6.4 12.9 0.00 0.00 0.00 37 1016.5
20260505161143 12 105 6.4 19.3 0.00 0.00 0.00 37 1016.6
20260505160641 12 26 4.8 16.1 0.00 0.00 0.00 37 1016.7
20260505160138 12 106 12.9 20.9 0.00 0.00 0.00 36 1016.7
20260505153118 12 109 16.1 22.5 0.00 0.00 0.00 38 1016.5
20260505152614 11 45 4.8 11.3 0.00 0.00 0.00 40 1016.7
20260505152110 11 68 9.7 20.9 0.00 0.00 0.00 39 1016.8
20260505151605 11 96 1.6 12.9 0.00 0.00 0.00 40 1016.7
20260505151103 11 103 8.0 14.5 0.00 0.00 0.00 40 1016.8
20260505150559 9 0 0.0 6.4 0.00 0.00 0.00 50 1016.9
20260505140525 6 236 3.2 4.8 0.00 0.00 0.00 57 1016.4
20260505124938 5 120 0.0 3.2 0.00 0.00 0.00 56 1015.7
20260505124435 6 192 0.0 4.8 0.00 0.00 0.00 54 1015.6
20260505123931 6 23 0.0 4.8 0.00 0.00 0.00 54 1015.6
20260505123428 6 74 3.2 8.0 0.00 0.00 0.00 55 1015.4
20260505122923 6 98 4.8 8.0 0.00 0.00 0.00 54 1015.6
20260505122421 6 270 1.6 6.4 0.00 0.00 0.00 53 1015.6
20260505121918 6 180 3.2 8.0 0.00 0.00 0.00 53 1015.5
20260505121415 6 260 0.0 3.2 0.00 0.00 0.00 53 1015.4
20260505120910 6 156 3.2 4.8 0.00 0.00 0.00 53 1015.5
20260505120407 5 117 0.0 3.2 0.00 0.00 0.00 55 1015.7
20260505115906 6 164 0.0 4.8 0.00 0.00 0.00 54 1015.6
20260505115403 5 341 3.2 6.4 0.00 0.00 0.00 54 1015.5
20260505114901 5 168 3.2 3.2 0.00 0.00 0.00 55 1015.5
20260505114357 5 120 1.6 3.2 0.00 0.00 0.00 56 1015.6
20260505113853 5 126 1.6 3.2 0.00 0.00 0.00 57 1015.6
20260505113350 5 194 0.0 4.8 0.00 0.00 0.00 55 1015.9
20260505112846 5 154 3.2 4.8 0.00 0.00 0.00 55 1015.9
20260505112344 5 196 3.2 3.2 0.00 0.00 0.00 54 1015.6
20260505111839 5 262 0.0 3.2 0.00 0.00 0.00 56 1015.7
20260505111335 5 123 0.0 1.6 0.00 0.00 0.00 57 1015.7
20260505110831 5 109 3.2 4.8 0.00 0.00 0.00 60 1015.8
20260505110328 5 356 3.2 3.2 0.00 0.00 0.00 56 1015.5
20260505101803 6 166 3.2 3.2 0.00 0.00 0.00 53 1015.4
20260505101258 6 15 0.0 4.8 0.00 0.00 0.00 52 1015.7
20260505100755 6 63 0.0 3.2 0.00 0.00 0.00 53 1015.6
20260505100251 5 135 3.2 3.2 0.00 0.00 0.00 54 1015.5
20260505095747 5 157 3.2 3.2 0.00 0.00 0.00 54 1015.2
20260505095245 5 166 3.2 4.8 0.00 0.00 0.00 55 1015.7
20260505094740 5 111 1.6 3.2 0.00 0.00 0.00 53 1015.7
20260505094237 5 61 3.2 4.8 0.00 0.00 0.00 54 1015.5
20260505093733 5 114 1.6 4.8 0.00 0.00 0.00 54 1015.2
20260505093231 5 90 1.6 3.2 0.00 0.00 0.00 54 1015.2
20260505092728 5 60 3.2 4.8 0.00 0.00 0.00 54 1015.7
20260505092227 6 94 4.8 4.8 0.00 0.00 0.00 54 1015.5
20260505091723 6 105 3.2 4.8 0.00 0.00 0.00 53 1015.2
20260505091221 6 94 4.8 4.8 0.00 0.00 0.00 53 1015.4
20260505090719 6 117 3.2 4.8 0.00 0.00 0.00 52 1015.5
20260505090217 6 94 3.2 6.4 0.00 0.00 0.00 51 1015.6
20260505085714 6 115 4.8 6.4 0.00 0.00 0.00 53 1015.4
20260505085212 6 135 0.0 0.0 0.00 0.00 0.00 52 1015.5
20260505084709 6 145 0.0 3.2 0.00 0.00 0.00 52 1015.6
20260505084208 6 108 4.8 4.8 0.00 0.00 0.00 54 1015.5
20260505083704 7 105 3.2 4.8 0.00 0.00 0.00 54 1015.2
20260505083201 7 81 3.2 4.8 0.00 0.00 0.00 54 1015.6
20260505082657 7 98 0.0 3.2 0.00 0.00 0.00 53 1015.4
20260505082155 7 114 1.6 4.8 0.00 0.00 0.00 51 1015.5
20260505081650 8 90 0.0 4.8 0.00 0.00 0.00 49 1015.5
20260505081148 7 87 4.8 8.0 0.00 0.00 0.00 50 1015.4
20260505080645 7 180 3.2 3.2 0.00 0.00 0.00 50 1015.2
20260505080141 8 105 6.4 8.0 0.00 0.00 0.00 52 1015.6
20260505075637 8 93 4.8 12.9 0.00 0.00 0.00 48 1015.7
20260505075133 7 102 6.4 6.4 0.00 0.00 0.00 47 1015.6
20260505074630 8 291 1.6 1.6 0.00 0.00 0.00 47 1015.7
20260505074127 8 254 4.8 4.8 0.00 0.00 0.00 46 1015.6
20260505073625 8 346 3.2 6.4 0.00 0.00 0.00 45 1015.8
20260505073123 8 81 0.0 3.2 0.00 0.00 0.00 46 1015.4
20260505072619 8 78 1.6 3.2 0.00 0.00 0.00 47 1015.4
20260505072116 8 33 8.0 8.0 0.00 0.00 0.00 46 1015.4
20260505071611 9 65 6.4 11.3 0.00 0.00 0.00 45 1015.2
20260505071109 9 113 3.2 17.7 0.00 0.00 0.00 44 1015.2
20260505070606 9 162 1.6 12.9 0.00 0.00 0.00 45 1015.5
20260505065558 9 99 3.2 14.5 0.00 0.00 0.00 45 1015.2
20260505065055 9 155 8.0 20.9 0.00 0.00 0.00 45 1015.4
20260505064551 9 125 6.4 17.7 0.00 0.00 0.00 45 1015.4
20260505064050 9 110 12.9 17.7 0.00 0.00 0.00 45 1015.5
20260505063547 9 165 0.0 19.3 0.00 0.00 0.00 46 1015.1
20260505063043 9 115 3.2 11.3 0.00 0.00 0.00 46 1015.2
20260505062540 9 15 3.2 8.0 0.00 0.00 0.00 47 1015.1
20260505062037 9 104 6.4 12.9 0.00 0.00 0.00 47 1015.1